Regional Weather Roundup
Issued by NWS

Home | Current Version | Previous Version | Graphics & Text | Print | Product List | Glossary On
Versions: 1 2 3 4 5 6 7 8 9 10 11 12 13 14 15 16 17 18 19 20 21 22 23 24 25 26 27 28 29 30 31 32 33 34 35 36 37 38 39 40 41 42 43 44 45 46 47 48 49 50
000
ASUS43 KFSD 301802
RWRSD

WEATHER ROUNDUP FOR SOUTH DAKOTA
NATIONAL WEATHER SERVICE SIOUX FALLS SD
100 PM CDT SAT AUG 30 2014

NOTE: "FAIR" INDICATES FEW OR NO CLOUDS BELOW 12,000 FEET WITH NO
SIGNIFICANT WEATHER AND/OR OBSTRUCTIONS TO VISIBILITY.


SDZ001>005-009-010-012>017-301900-
NORTHWEST AND NORTH CENTRAL SOUTH DAKOTA

CITY           SKY/WX    TMP DP  RH WIND       PRES   REMARKS
BUFFALO          N/A     73  57  56 SE18G29   29.74F
FAITH            N/A     70  58  65 SE22G30   29.83F
MOBRIDGE       SUNNY     68  58  70 SE10      29.87F
$$

SDZ012>016-024>037-041>051-057-063-072>074-301900-
SOUTHWEST AND SOUTH CENTRAL SOUTH DAKOTA

CITY           SKY/WX    TMP DP  RH WIND       PRES   REMARKS
RAPID CTY ARPT SUNNY     76  57  51 S17       29.83F
PIERRE         SUNNY     71  57  61 E12       29.88F
CUSTER         SUNNY     78  45  30 SW7G17    29.95F
PHILIP         SUNNY     78  59  51 SE21      29.84F
PINE RIDGE     SUNNY     82  59  45 S15G22    29.86F
WINNER         FAIR      76  57  51 SE8       29.91F
$$

SDZ004>011-016>023-039-040-301900-
NORTHEAST SOUTH DAKOTA

CITY           SKY/WX    TMP DP  RH WIND       PRES   REMARKS
ABERDEEN       MOSUNNY   68  57  68 NE6       29.91F
WATERTOWN      CLOUDY    63  57  81 NW6       29.92F
SISSETON         N/A     66  58  75 NE6       29.89F
$$

SDZ017-020-022-023-036>040-048>070-301900-
SOUTHEAST SOUTH DAKOTA

CITY           SKY/WX    TMP DP  RH WIND       PRES   REMARKS
SIOUX FALLS    CLOUDY    68  60  75 NW3       29.93F
HURON          PTSUNNY   67  57  70 S3        29.92F
CHAMBERLAIN    SUNNY     69  58  68 SE5       29.92F
MITCHELL       CLOUDY    64  58  80 SW7       29.95S
YANKTON        CLOUDY    64  57  77 W8        29.95F
$$

ABBREVIATIONS USED IN REMARKS
   TC - TEMPERATURE IN CELSIUS
  WCI - WIND CHILL INDEX
   HX - HEAT INDEX
  VSB - VISIBILITY



USA.gov is the U.S. government's official web portal to all federal, state and local government web resources and services.